• In Netherlands
  • List of Countries
  • For 7 days
  • Water Temperature
  • Satellite Maps
  • Weather Map
  • Weather Widgets
  • user-avatar
    Login

    Hourly Weather Solden

    Today, 18 November, Saturday

    Time Temperature Precipitation Wind Pressure Humidity
    00:00 -8°C° 0 mm 1 mps 580 mmHg 86%
    01:00 -8°C° 0 mm 1 mps 580 mmHg 85%
    02:00 -8°C° 0 mm 1 mps 579 mmHg 85%
    03:00 -9°C° 0 mm 1 mps 579 mmHg 85%
    04:00 -9°C° 0 mm 1 mps 579 mmHg 85%
    05:00 -9°C° 0 mm 1 mps 579 mmHg 85%
    06:00 -10°C° 0 mm 2 mps 578 mmHg 85%
    07:00 -12°C° 0 mm 2 mps 578 mmHg 85%
    08:00 -9°C° 0 mm 2 mps 579 mmHg 80%
    09:00 -7°C° 0 mm 2 mps 580 mmHg 76%
    10:00 -3°C° 0 mm 1 mps 581 mmHg 72%
    11:00 -2°C° 0 mm 1 mps 581 mmHg 68%
    12:00 -1°C° 0 mm 1 mps 581 mmHg 64%
    13:00 0°C° 0 mm 1 mps 582 mmHg 61%
    14:00 -1°C° 0 mm 1 mps 581 mmHg 65%
    15:00 -3°C° 0 mm 1 mps 580 mmHg 70%
    16:00 -4°C° 0 mm 1 mps 579 mmHg 75%
    17:00 -6°C° 0 mm 1 mps 579 mmHg 76%
    18:00 -9°C° 0 mm 2 mps 578 mmHg 76%
    19:00 -10°C° 0 mm 2 mps 578 mmHg 77%
    20:00 -10°C° 0 mm 2 mps 578 mmHg 73%
    21:00 -12°C° 0 mm 2 mps 578 mmHg 69%
    22:00 -12°C° 0 mm 2 mps 578 mmHg 64%
    23:00 -12°C° 0 mm 2 mps 578 mmHg 63%

    Tomorrow, 19 November, Sunday

    Time Temperature Precipitation Wind Pressure Humidity
    00:00 -12°C° 0 mm 2 mps 577 mmHg 61%
    01:00 -12°C° 0 mm 2 mps 577 mmHg 59%
    02:00 -10°C° 0 mm 2 mps 577 mmHg 58%
    03:00 -10°C° 0 mm 2 mps 577 mmHg 57%
    04:00 -9°C° 0 mm 2 mps 577 mmHg 55%
    05:00 -9°C° 0.1 mm 2 mps 577 mmHg 60%
    06:00 -8°C° 0.1 mm 2 mps 577 mmHg 64%
    07:00 -8°C° 0.1 mm 2 mps 577 mmHg 68%
    08:00 -7°C° 0.2 mm 2 mps 577 mmHg 70%
    09:00 -6°C° 0.2 mm 2 mps 578 mmHg 71%
    10:00 -5°C° 0.2 mm 2 mps 579 mmHg 72%
    11:00 -4°C° 0.1 mm 2 mps 579 mmHg 69%
    12:00 -4°C° 0.1 mm 2 mps 579 mmHg 65%
    13:00 -3°C° 0.1 mm 2 mps 579 mmHg 61%
    14:00 -4°C° 0 mm 2 mps 579 mmHg 65%
    15:00 -6°C° 0 mm 2 mps 578 mmHg 68%
    16:00 -7°C° 0 mm 2 mps 578 mmHg 72%
    17:00 -8°C° 0.1 mm 2 mps 578 mmHg 74%
    18:00 -9°C° 0.1 mm 2 mps 578 mmHg 76%
    19:00 -10°C° 0.1 mm 2 mps 578 mmHg 78%
    20:00 -10°C° 0 mm 2 mps 578 mmHg 78%
    21:00 -12°C° 0 mm 2 mps 578 mmHg 78%
    22:00 -12°C° 0 mm 2 mps 578 mmHg 79%
    23:00 -12°C° 0 mm 2 mps 578 mmHg 78%

    Day after tomorrow, 20 November, Monday

    Time Temperature Precipitation Wind Pressure Humidity
    00:00 -13°C° 0 mm 2 mps 578 mmHg 78%
    01:00 -13°C° 0 mm 2 mps 578 mmHg 78%
    02:00 -13°C° 0 mm 2 mps 578 mmHg 77%
    03:00 -13°C° 0 mm 2 mps 578 mmHg 75%
    04:00 -14°C° 0 mm 2 mps 578 mmHg 74%
    05:00 -13°C° 0 mm 2 mps 578 mmHg 70%
    06:00 -13°C° 0 mm 2 mps 579 mmHg 67%
    07:00 -13°C° 0 mm 2 mps 579 mmHg 63%
    08:00 -10°C° 0 mm 2 mps 580 mmHg 59%
    09:00 -8°C° 0 mm 2 mps 581 mmHg 55%
    10:00 -3°C° 0 mm 1 mps 582 mmHg 51%
    11:00 -2°C° 0 mm 1 mps 582 mmHg 49%
    12:00 -1°C° 0 mm 1 mps 583 mmHg 48%
    13:00 0°C° 0 mm 1 mps 583 mmHg 46%
    14:00 -1°C° 0 mm 1 mps 582 mmHg 52%
    15:00 -2°C° 0 mm 1 mps 581 mmHg 59%
    16:00 -3°C° 0 mm 1 mps 581 mmHg 65%
    17:00 -4°C° 0 mm 1 mps 580 mmHg 68%
    18:00 -7°C° 0 mm 2 mps 580 mmHg 70%
    19:00 -8°C° 0 mm 2 mps 580 mmHg 73%
    20:00 -8°C° 0 mm 2 mps 580 mmHg 73%
    21:00 -8°C° 0 mm 2 mps 580 mmHg 73%
    22:00 -8°C° 0 mm 2 mps 580 mmHg 73%
    23:00 -8°C° 0 mm 2 mps 579 mmHg 73%

    21 November, Tuesday

    Time Temperature Precipitation Wind Pressure Humidity
    00:00 -8°C° 0 mm 2 mps 579 mmHg 73%
    01:00 -8°C° 0 mm 2 mps 579 mmHg 72%
    02:00 -8°C° 0 mm 2 mps 579 mmHg 72%
    03:00 -7°C° 0 mm 2 mps 579 mmHg 72%
    04:00 -7°C° 0 mm 2 mps 579 mmHg 71%
    05:00 -7°C° 0 mm 2 mps 579 mmHg 73%
    06:00 -7°C° 0 mm 2 mps 579 mmHg 74%
    07:00 -7°C° 0 mm 2 mps 579 mmHg 75%
    08:00 -5°C° 0 mm 2 mps 580 mmHg 73%
    09:00 -4°C° 0 mm 2 mps 581 mmHg 71%
    10:00 0°C° 0 mm 1 mps 582 mmHg 69%
    11:00 +1°C° 0 mm 1 mps 582 mmHg 69%
    12:00 +2°C° 0 mm 1 mps 583 mmHg 69%
    13:00 +3°C° 0 mm 1 mps 583 mmHg 70%
    14:00 +2°C° 0 mm 1 mps 582 mmHg 73%
    15:00 +1°C° 0 mm 1 mps 582 mmHg 75%
    16:00 -1°C° 0 mm 1 mps 581 mmHg 78%
    17:00 -1°C° 0 mm 1 mps 581 mmHg 78%
    18:00 -2°C° 0 mm 1 mps 581 mmHg 78%
    19:00 -3°C° 0 mm 1 mps 581 mmHg 79%
    20:00 -3°C° 0 mm 1 mps 581 mmHg 77%
    21:00 -3°C° 0 mm 1 mps 581 mmHg 76%
    22:00 -4°C° 0 mm 1 mps 581 mmHg 75%
    23:00 -4°C° 0 mm 1 mps 581 mmHg 73%

    22 November, Wednesday

    Time Temperature Precipitation Wind Pressure Humidity
    00:00 -4°C° 0 mm 1 mps 580 mmHg 71%
    01:00 -4°C° 0 mm 1 mps 580 mmHg 70%
    02:00 -4°C° 0 mm 1 mps 580 mmHg 69%
    03:00 -4°C° 0 mm 1 mps 580 mmHg 68%
    04:00 -4°C° 0 mm 1 mps 580 mmHg 68%
    05:00 -4°C° 0 mm 1 mps 580 mmHg 67%
    06:00 -4°C° 0 mm 1 mps 580 mmHg 67%
    07:00 -4°C° 0 mm 1 mps 580 mmHg 66%
    08:00 -3°C° 0 mm 1 mps 581 mmHg 65%
    09:00 -1°C° 0 mm 1 mps 582 mmHg 63%
    10:00 +1°C° 0 mm 1 mps 583 mmHg 61%
    11:00 +2°C° 0 mm 1 mps 583 mmHg 64%
    12:00 +3°C° 0 mm 1 mps 583 mmHg 66%
    13:00 +3°C° 0 mm 1 mps 583 mmHg 68%
    14:00 +2°C° 0 mm 1 mps 583 mmHg 71%
    15:00 +1°C° 0 mm 1 mps 582 mmHg 73%
    16:00 0°C° 0 mm 1 mps 581 mmHg 76%
    17:00 -3°C° 0 mm 2 mps 581 mmHg 77%
    18:00 -4°C° 0 mm 2 mps 581 mmHg 78%
    19:00 -5°C° 0 mm 2 mps 580 mmHg 79%
    20:00 -6°C° 0 mm 2 mps 580 mmHg 79%
    21:00 -6°C° 0 mm 2 mps 580 mmHg 78%
    22:00 -6°C° 0 mm 2 mps 580 mmHg 78%
    23:00 -6°C° 0 mm 2 mps 580 mmHg 78%

    23 November, Thursday

    Time Temperature Precipitation Wind Pressure Humidity
    00:00 -6°C° 0 mm 2 mps 580 mmHg 78%
    01:00 -6°C° 0 mm 2 mps 580 mmHg 78%
    02:00 -6°C° 0 mm 2 mps 580 mmHg 78%
    03:00 -7°C° 0 mm 2 mps 580 mmHg 78%
    04:00 -7°C° 0 mm 2 mps 580 mmHg 79%
    05:00 -7°C° 0 mm 2 mps 580 mmHg 79%
    06:00 -7°C° 0 mm 2 mps 580 mmHg 80%
    07:00 -7°C° 0 mm 2 mps 579 mmHg 80%
    08:00 -5°C° 0 mm 2 mps 580 mmHg 78%
    09:00 -4°C° 0 mm 2 mps 581 mmHg 77%
    10:00 -2°C° 0 mm 2 mps 582 mmHg 75%
    11:00 -2°C° 0 mm 3 mps 582 mmHg 75%
    12:00 -1°C° 0 mm 3 mps 582 mmHg 75%
    13:00 0°C° 0 mm 3 mps 583 mmHg 75%
    14:00 -1°C° 0 mm 2 mps 582 mmHg 79%
    15:00 -2°C° 0 mm 2 mps 582 mmHg 82%
    16:00 -3°C° 0 mm 2 mps 582 mmHg 86%
    17:00 -3°C° 0 mm 2 mps 582 mmHg 87%
    18:00 -4°C° 0 mm 2 mps 581 mmHg 89%
    19:00 -5°C° 0 mm 2 mps 581 mmHg 90%
    20:00 -5°C° 0 mm 2 mps 581 mmHg 89%
    21:00 -5°C° 0 mm 2 mps 582 mmHg 88%
    22:00 -5°C° 0 mm 2 mps 582 mmHg 87%
    23:00 -5°C° 0 mm 2 mps 582 mmHg 87%
    Show more